Wind_Speed
43 45 43 44 42 39 37 35 35 34 31 29 28 27 24 23 22 19 20 20 19 21 27 20 20 21 21 23 25 25 31 37 38 36 30 28 26 25 21 18 28 30 34 41 47 43 33 23 31 32 29 33 30 40
36 40 44 41 40 39 38 37 35 34 34 31 30 30 30 28 26 26 21 21 19 21 28 22 21 23 22 20 21 21 26 32 35 31 30 30 30 26 23 21 22 25 26 33 34 43 36 25 23 35 36 32 32 36
38 43 44 44 42 39 39 37 35 33 34 33 30 29 30 29 28 26 22 22 22 20 28 25 23 21 22 22 22 18 18 28 30 25 24 24 24 22 26 25 22 23 24 30 34 34 43 29 19 30 38 32 28 25
40 40 40 44 42 40 39 39 37 35 34 32 31 30 29 28 27 26 25 22 22 21 25 28 23 25 23 22 20 21 23 22 26 31 23 21 20 23 24 21 21 24 22 27 26 27 30 28 27 25 26 31 27 11
37 37 35 37 45 46 33 38 36 34 36 33 31 30 29 27 27 26 27 25 23 22 22 25 24 28 23 23 22 23 21 19 26 30 27 25 21 20 24 23 22 22 19 25 25 21 30 30 26 28 25 27 28 19
34 30 34 38 35 38 37 36 31 31 33 34 33 34 34 31 30 29 29 28 26 25 21 25 25 27 24 21 21 22 23 22 21 24 27 29 28 26 26 22 16 20 24 26 23 26 29 19 27 24 25 26 26 26
29 30 28 26 27 30 33 36 35 33 36 34 34 35 33 32 32 32 32 27 27 24 24 26 26 27 24 22 20 21 23 21 21 23 24 28 29 32 29 17 18 18 26 24 27 26 26 23 21 27 26 19 23 29
29 28 24 18 23 26 27 28 27 27 28 30 36 36 34 34 35 33 30 28 26 25 26 27 27 26 24 22 19 20 20 19 18 20 24 25 31 30 20 14 13 14 12 3 22 27 26 28 21 25 23 26 25 18
28 27 24 18 23 22 21 23 25 27 25 29 31 37 31 32 31 29 27 25 25 23 24 25 27 26 24 22 21 22 21 18 17 17 24 31 28 21 13 18 13 12 6 8 24 33 32 38 13 15 20 27 26 26
29 28 30 25 19 21 21 24 27 26 22 21 21 22 25 26 26 26 24 23 22 22 24 27 26 26 24 23 22 22 23 21 17 18 30 27 16 19 18 17 13 11 15 15 18 20 24 35 27 20 22 24 26 26
28 29 27 23 26 24 23 22 23 27 23 21 23 25 26 24 23 24 21 21 21 24 25 25 24 24 23 23 22 23 22 22 20 25 23 20 14 21 22 15 15 17 18 22 21 21 22 24 28 22 18 22 20 21
25 26 28 25 24 23 22 23 24 23 23 22 22 23 22 22 22 22 20 21 23 23 23 23 24 23 23 22 22 22 22 23 22 20 17 11 18 16 13 14 17 17 13 17 20 13 14 23 22 22 26 23 15 19
28 26 24 23 19 18 21 22 22 22 22 24 23 21 21 19 21 23 23 18 21 22 20 21 21 21 23 22 21 21 23 21 21 20 10 8 11 14 17 16 18 17 12 12 13 13 15 17 17 20 17 15 18 20
20 23 18 17 16 15 14 15 14 15 18 18 17 17 21 23 24 24 23 22 20 17 15 16 19 20 22 21 21 21 20 20 20 13 8 12 14 16 18 21 20 16 13 11 14 18 17 17 22 24 20 20 20 24
19 21 20 18 17 15 15 16 15 15 16 16 17 17 14 16 20 23 23 25 27 26 22 23 21 21 22 23 23 23 21 21 14 12 9 18 17 21 24 24 17 20 17 16 18 18 19 20 21 18 16 17 20 23
16 18 18 17 14 15 16 16 17 17 14 18 16 14 13 13 14 16 16 16 17 19 20 20 19 18 20 22 21 22 20 14 15 16 19 15 18 24 21 22 17 23 24 18 16 18 19 16 16 17 17 17 17 19
8 14 16 14 14 15 17 18 20 19 19 16 14 13 13 14 11 8 13 15 15 15 16 17 17 19 19 20 21 21 18 26 16 17 19 12 20 27 21 21 16 22 23 22 17 15 15 17 17 18 18 16 14 15
11 14 13 12 12 13 16 19 21 21 17 17 16 18 16 13 16 16 14 13 15 16 15 14 15 17 18 19 18 18 20 23 21 20 18 15 18 22 21 20 19 20 22 19 18 18 18 15 13 13 13 13 13 15
14 12 14 18 20 19 18 17 18 19 17 15 17 22 17 13 12 13 13 12 15 19 18 19 18 16 17 19 17 18 20 20 14 15 15 18 21 20 21 19 16 18 20 19 18 17 14 12 11 13 14 15 16 17
13 16 27 23 18 15 15 15 15 13 14 18 20 16 13 12 11 11 13 16 17 18 15 15 19 20 24 21 26 15 14 17 15 14 12 18 21 20 17 18 16 15 15 15 12 10 11 13 14 15 16 16 16 16
21 21 21 18 16 15 14 13 13 14 12 15 18 12 6 7 11 12 5 5 5 9 18 19 21 25 25 11 10 10 18 13 13 15 19 20 21 20 20 16 14 13 13 13 12 12 13 14 15 16 16 15 15 15
24 21 19 18 16 14 11 12 14 11 11 14 11 5 3 3 6 4 6 6 10 12 14 14 16 24 6 8 6 9 10 12 6 5 9 15 20 19 21 15 15 14 13 12 14 15 15 14 14 15 15 15 15 16
23 22 20 17 15 13 14 15 15 14 11 9 7 7 5 3 7 15 15 19 22 18 16 12 11 9 8 9 6 10 15 17 13 5 12 14 11 12 13 11 12 13 9 9 11 12 12 12 12 14 15 16 17 18
21 20 17 15 14 13 15 19 19 13 10 7 12 11 8 9 19 25 22 17 19 12 10 6 12 14 13 13 12 12 12 13 10 8 6 9 11 16 7 9 11 9 8 10 9 8 10 14 15 15 17 19 19 19
19 17 16 14 12 13 18 19 16 11 7 10 15 14 18 16 19 19 18 15 16 14 11 14 12 11 11 10 10 11 14 13 10 9 8 8 9 9 8 8 9 9 11 9 11 13 15 17 19 20 20 22 21 20
17 16 14 12 12 12 16 19 15 11 10 16 15 13 17 19 15 11 13 18 15 14 11 12 12 12 10 10 10 9 9 7 6 6 5 7 9 9 8 9 11 15 15 14 15 17 17 19 20 21 18 20 21 21
16 15 13 12 11 14 18 16 13 11 12 16 16 16 15 9 11 9 11 11 10 10 10 7 7 7 5 4 4 5 5 3 3 4 5 7 8 12 13 14 15 16 16 17 19 18 18 18 20 20 19 19 21 23
16 14 13 12 15 16 15 15 12 12 13 15 15 13 11 12 9 9 7 8 7 6 7 7 7 5 4 4 4 4 5 7 5 6 8 9 10 13 15 16 14 15 17 18 19 19 21 22 24 23 22 21 21 20
15 14 14 16 17 16 14 12 11 12 14 15 12 11 9 9 9 5 6 6 4 3 4 4 5 5 6 6 6 7 8 9 10 9 10 12 13 13 15 16 16 17 18 18 19 20 22 23 24 24 22 21 23 23
15 14 18 17 15 14 11 12 12 14 17 15 15 12 8 5 2 1 2 2 2 0 1 3 4 5 4 6 7 9 10 11 11 12 14 16 16 17 20 22 23 22 23 24 24 26 27 25 25 25 20 21 22 22
17 20 18 16 14 12 12 13 16 16 15 15 14 8 3 0 1 1 3 4 2 0 3 5 7 6 8 8 10 12 13 13 14 16 17 19 19 19 21 22 21 18 19 20 21 23 24 24 23 24 22 21 20 19
21 20 17 15 14 13 16 16 15 13 10 4 3 3 3 3 4 4 4 3 6 9 8 6 4 6 6 6 5 7 10 11 12 12 14 15 13 14 15 14 12 10 14 18 20 22 23 18 19 20 20 22 21 21
16 14 14 14 14 16 16 13 11 11 11 8 7 6 5 2 2 2 3 3 3 4 5 6 6 6 8 9 11 12 14 16 17 18 19 15 19 14 13 17 19 16 16 17 17 19 20 24 22 19 21 22 22 21
Wind_Direction
252 247 246 246 245 242 242 243 245 249 247 243 243 235 242 256 256 256 267 268 258 252 257 255 254 254 250 249 252 255 241 231 234 244 249 247 255 253 250 247 243 249 257 244 237 246 247 237 218 216 230 238 236 236
252 246 245 246 244 241 239 241 245 246 238 238 238 239 243 252 259 262 261 264 261 252 258 251 247 254 257 258 261 264 255 236 236 239 250 258 257 248 241 237 241 251 254 250 255 244 242 230 225 215 222 236 238 228
248 241 247 249 244 240 238 239 244 241 234 234 238 240 245 247 254 260 257 261 265 254 258 253 245 249 253 255 258 260 248 247 238 243 246 250 246 231 229 240 251 249 256 247 245 247 245 224 225 219 223 236 240 274
247 247 250 240 239 240 238 235 240 235 232 234 236 242 244 249 254 256 258 261 265 258 254 257 247 246 249 255 254 251 253 236 235 235 242 251 233 232 232 244 249 249 253 252 253 250 243 222 219 216 229 237 241 266
246 246 241 243 246 240 234 234 237 246 236 232 238 240 242 248 254 258 258 265 264 258 254 255 248 247 249 252 253 251 252 247 229 229 233 234 235 238 237 245 235 237 265 260 266 240 223 212 213 229 226 242 241 251
244 241 241 247 246 245 242 236 234 239 244 242 238 239 245 249 254 261 263 263 263 260 250 250 247 247 248 253 254 250 247 244 239 232 231 228 228 234 238 247 251 269 260 258 257 239 237 246 208 219 227 228 236 241
236 237 239 240 241 235 235 244 245 244 240 240 239 239 242 247 253 262 266 259 258 257 250 246 243 243 247 248 249 250 248 242 241 229 235 238 237 238 241 249 255 267 292 236 241 231 236 239 226 229 232 222 233 243
231 229 219 240 237 229 224 225 230 238 238 239 241 236 240 248 256 263 261 259 257 252 246 242 242 237 240 242 247 248 248 248 245 239 232 235 232 237 239 236 244 242 273 250 207 215 221 225 244 234 233 244 244 229
228 218 222 237 226 224 228 228 232 237 246 238 240 234 241 248 255 258 259 256 252 244 237 236 236 233 232 237 242 243 244 240 239 242 237 238 236 238 219 228 231 227 231 226 222 216 228 234 220 201 219 234 234 257
218 214 223 227 226 234 232 226 231 234 229 225 229 235 241 249 256 258 252 245 241 234 227 229 229 232 235 238 242 242 242 246 242 242 238 240 240 230 228 228 228 219 210 198 206 220 235 203 211 225 232 235 235 257
216 213 211 218 223 231 225 221 227 223 225 234 236 240 245 248 251 245 237 236 231 228 223 225 227 230 234 237 239 237 236 237 235 242 246 237 222 226 225 223 226 220 210 220 215 208 209 200 217 236 223 230 237 233
208 210 214 202 209 221 226 227 228 230 237 243 243 241 238 240 238 232 229 227 225 228 226 224 226 231 235 236 234 231 228 232 234 241 252 230 226 231 223 222 230 240 226 223 223 225 217 218 219 222 239 257 268 253
197 198 195 199 218 223 223 225 229 230 233 235 232 233 231 229 227 222 221 225 229 225 224 222 228 234 232 230 227 227 230 232 236 240 237 222 213 210 211 221 227 235 239 238 228 228 215 234 231 232 243 254 261 270
186 190 190 199 202 209 214 219 223 225 216 218 219 226 229 228 221 224 215 218 223 227 226 230 239 232 228 227 231 232 231 229 235 233 214 220 206 197 204 211 215 216 220 225 222 218 221 230 243 248 243 251 257 264
196 192 191 194 206 217 224 215 212 209 208 212 219 211 210 209 207 220 221 223 230 234 241 243 239 234 230 230 233 234 234 239 241 231 193 194 196 204 207 214 219 218 208 223 230 234 240 241 245 252 255 262 268 266
178 194 203 202 221 219 207 204 207 207 211 208 191 198 200 193 196 202 212 221 225 223 226 229 228 228 230 232 232 234 230 213 211 206 216 212 207 200 204 213 222 199 206 222 225 245 250 245 249 253 249 248 246 251
200 191 193 201 204 207 210 211 201 205 198 180 185 188 188 191 175 190 225 220 228 233 233 235 235 237 236 234 235 227 213 200 199 203 207 220 211 202 208 217 213 205 212 217 233 213 213 224 229 233 238 245 253 261
196 190 198 201 203 198 186 186 183 166 178 190 185 171 160 181 187 209 225 226 232 232 229 226 231 237 231 224 220 214 216 206 214 237 237 246 215 208 209 202 211 210 208 207 200 208 224 226 234 247 253 257 263 275
187 191 183 176 161 150 151 155 167 185 192 186 175 176 182 193 210 216 223 236 239 223 244 247 235 220 204 192 194 197 194 191 205 216 246 217 205 211 198 194 175 177 185 196 201 209 219 231 245 258 265 271 274 275
167 164 156 151 159 164 165 171 177 184 181 172 169 176 194 213 227 248 258 264 257 246 234 199 192 188 182 186 176 170 192 192 204 200 202 189 207 218 202 178 172 178 192 200 209 223 235 245 252 259 262 264 267 268
153 142 144 152 155 159 166 168 163 159 160 167 176 193 223 270 283 288 267 213 196 176 175 176 181 184 178 186 170 187 193 182 202 211 211 224 222 211 195 180 180 201 210 217 230 242 247 249 258 258 256 261 267 272
149 152 155 154 156 160 161 159 158 149 149 162 169 192 243 320 322 159 139 126 125 134 150 159 185 188 153 132 179 176 171 170 203 244 207 198 208 218 201 185 202 211 217 230 240 243 248 250 249 256 262 261 261 266
153 155 156 156 154 152 149 150 153 145 147 154 157 134 93 15 94 119 105 113 121 126 141 145 151 168 164 150 80 135 155 160 147 120 103 121 137 167 173 186 202 193 205 222 238 245 248 255 259 263 265 269 277 282
150 152 150 150 149 149 151 152 153 144 140 147 117 104 93 83 121 114 111 126 140 121 90 118 117 130 92 93 98 148 165 175 201 168 168 176 169 164 184 181 189 200 222 230 227 237 249 256 260 262 268 272 275 270
152 149 149 150 146 147 150 154 154 157 155 137 126 110 104 109 128 110 113 122 136 132 98 111 117 117 125 124 129 123 127 139 157 169 190 193 187 195 201 203 200 201 218 239 260 260 261 263 268 271 272 272 272 266
156 153 149 146 148 147 150 150 147 144 142 130 124 122 126 111 110 120 109 134 129 138 135 130 131 142 150 149 149 152 155 158 164 170 181 198 186 185 208 213 220 232 244 259 263 269 272 274 277 279 277 273 272 271
154 152 150 149 149 149 147 148 145 141 141 135 126 121 112 83 85 111 121 128 135 143 153 151 156 154 170 162 168 205 229 223 231 237 246 252 233 228 244 249 259 268 268 269 271 273 275 274 269 269 270 269 271 272
151 149 149 144 140 140 141 142 139 138 145 140 127 125 98 93 88 89 106 131 138 151 152 157 156 161 205 208 208 232 263 271 272 264 265 261 257 257 262 264 265 263 265 269 271 272 273 273 274 273 275 276 272 266
150 150 147 145 140 140 139 135 131 127 136 138 128 119 115 114 93 79 99 96 108 149 182 197 194 207 233 253 271 283 277 272 270 263 257 258 262 261 261 264 262 265 267 268 269 267 262 261 264 264 268 268 263 259
146 145 144 142 139 134 132 136 134 133 129 123 137 126 110 97 96 110 124 80 80 133 185 196 217 231 237 256 262 261 262 267 274 276 279 277 272 272 275 278 277 275 275 276 278 277 276 271 270 268 265 263 261 257
143 142 142 139 131 130 137 135 132 137 151 131 145 150 145 317 344 5 49 48 37 260 242 254 257 265 256 246 248 258 269 277 277 275 276 276 273 275 279 278 284 289 288 287 283 283 285 283 280 277 276 272 263 259
143 143 144 140 137 130 129 127 138 140 121 124 175 178 162 127 101 75 61 70 39 28 32 31 7 351 342 329 323 291 291 293 286 290 291 287 291 299 299 290 286 253 290 291 286 287 284 280 294 294 288 282 276 271
144 145 145 144 142 144 141 137 138 148 162 177 167 134 121 131 36 16 10 358 1 11 356 340 333 327 314 307 305 301 312 312 302 300 304 288 300 298 306 309 303 293 289 286 284 282 274 269 278 281 283 285 283 279
Height
5713 5717 5722 5726 5731 5735 5739 5742 5745 5748 5750 5753 5756 5758 5760 5761 5762 5763 5765 5764 5766 5766 5764 5769 5770 5771 5772 5773 5773 5774 5774 5775 5777 5781 5786 5789 5791 5794 5796 5798 5800 5802 5803 5805 5809 5811 5816 5822 5822 5826 5831 5834 5839 5840
5701 5705 5710 5714 5719 5723 5727 5731 5734 5737 5740 5744 5746 5749 5751 5753 5754 5756 5757 5757 5759 5760 5758 5763 5764 5764 5765 5767 5768 5768 5770 5771 5771 5775 5779 5781 5784 5787 5789 5790 5792 5795 5797 5799 5801 5805 5810 5817 5818 5819 5822 5827 5833 5835
5689 5693 5697 5703 5707 5712 5716 5720 5724 5727 5730 5734 5737 5740 5742 5745 5746 5748 5749 5750 5752 5754 5751 5756 5758 5759 5759 5760 5762 5764 5763 5765 5768 5770 5772 5775 5777 5780 5781 5784 5787 5788 5789 5793 5794 5796 5802 5811 5814 5814 5817 5822 5827 5829
5677 5682 5685 5690 5695 5699 5705 5709 5713 5717 5720 5724 5728 5731 5734 5736 5738 5739 5741 5743 5744 5746 5746 5747 5751 5751 5753 5754 5757 5756 5755 5758 5761 5764 5767 5769 5771 5774 5776 5777 5780 5782 5784 5785 5788 5792 5797 5804 5809 5811 5813 5815 5820 5824
5666 5670 5674 5679 5683 5687 5693 5698 5702 5706 5710 5714 5718 5722 5725 5727 5729 5731 5733 5735 5737 5740 5740 5740 5743 5743 5746 5748 5750 5750 5751 5752 5754 5756 5761 5763 5765 5768 5769 5771 5775 5776 5778 5780 5782 5784 5787 5791 5801 5806 5810 5813 5815 5819
5656 5659 5664 5669 5672 5677 5682 5688 5692 5697 5700 5704 5708 5713 5716 5719 5721 5723 5725 5728 5730 5732 5733 5733 5735 5736 5739 5742 5744 5745 5745 5746 5748 5751 5754 5756 5759 5761 5762 5766 5771 5775 5775 5775 5776 5780 5783 5786 5793 5797 5801 5805 5810 5814
5647 5652 5656 5660 5664 5667 5673 5678 5683 5687 5691 5695 5699 5703 5707 5710 5713 5715 5717 5720 5721 5724 5726 5726 5728 5730 5733 5736 5737 5738 5739 5741 5742 5745 5748 5751 5753 5753 5757 5764 5767 5767 5767 5768 5770 5775 5779 5785 5787 5792 5797 5801 5805 5806
5639 5644 5649 5653 5656 5660 5665 5669 5673 5678 5681 5685 5690 5694 5698 5701 5704 5706 5707 5710 5712 5716 5717 5719 5721 5725 5727 5729 5731 5732 5733 5735 5737 5738 5741 5743 5744 5747 5754 5760 5761 5762 5759 5759 5763 5770 5777 5776 5779 5784 5788 5789 5794 5797
5631 5636 5642 5647 5651 5655 5658 5662 5666 5670 5674 5677 5681 5684 5689 5692 5695 5697 5699 5702 5705 5709 5709 5711 5714 5717 5721 5724 5725 5727 5728 5730 5732 5734 5734 5732 5737 5744 5752 5752 5755 5756 5756 5758 5762 5765 5769 5772 5779 5780 5784 5787 5788 5788
5624 5630 5637 5642 5646 5649 5652 5656 5659 5663 5666 5669 5673 5678 5681 5684 5687 5690 5691 5695 5697 5699 5701 5703 5708 5711 5715 5718 5720 5723 5723 5724 5727 5728 5724 5729 5737 5739 5743 5746 5749 5752 5753 5755 5757 5759 5760 5763 5773 5777 5779 5779 5783 5784
5619 5625 5631 5636 5641 5645 5647 5651 5654 5657 5660 5664 5667 5671 5673 5677 5680 5682 5686 5688 5690 5692 5695 5699 5703 5705 5709 5711 5714 5716 5718 5720 5721 5720 5723 5728 5733 5732 5735 5742 5744 5746 5748 5749 5752 5755 5759 5763 5769 5772 5772 5775 5776 5778
5615 5621 5626 5631 5636 5639 5643 5646 5649 5652 5655 5659 5662 5664 5668 5670 5674 5678 5680 5681 5683 5688 5690 5693 5697 5701 5703 5705 5708 5710 5713 5714 5716 5719 5722 5727 5728 5732 5736 5738 5739 5740 5745 5749 5751 5753 5756 5761 5763 5765 5768 5767 5768 5770
5611 5618 5622 5627 5631 5634 5637 5641 5644 5648 5650 5653 5656 5659 5663 5666 5669 5671 5673 5676 5680 5683 5685 5689 5693 5696 5698 5701 5703 5705 5708 5711 5713 5716 5722 5724 5725 5727 5730 5732 5733 5736 5741 5744 5747 5749 5751 5752 5755 5757 5758 5760 5761 5763
5610 5615 5620 5624 5628 5632 5634 5637 5639 5641 5644 5648 5652 5655 5657 5659 5662 5666 5670 5673 5676 5678 5682 5685 5688 5692 5693 5696 5698 5701 5705 5706 5709 5715 5719 5719 5720 5722 5724 5726 5726 5732 5736 5740 5744 5746 5746 5747 5748 5750 5754 5756 5759 5759
5608 5613 5617 5621 5625 5628 5630 5633 5636 5639 5642 5646 5648 5650 5653 5655 5658 5662 5666 5670 5672 5675 5678 5681 5685 5688 5689 5692 5693 5697 5700 5702 5708 5712 5713 5714 5716 5719 5720 5721 5723 5725 5729 5733 5735 5737 5741 5744 5745 5747 5748 5751 5752 5752
5608 5612 5615 5619 5622 5624 5627 5630 5634 5637 5640 5642 5646 5650 5652 5654 5657 5660 5663 5666 5669 5671 5674 5677 5680 5683 5684 5686 5689 5692 5697 5701 5703 5706 5709 5711 5711 5714 5717 5719 5721 5723 5724 5731 5734 5737 5738 5740 5743 5744 5745 5746 5748 5749
5606 5609 5613 5617 5619 5621 5624 5627 5631 5635 5638 5642 5645 5648 5651 5654 5657 5661 5662 5664 5666 5668 5671 5674 5676 5678 5680 5682 5684 5688 5692 5696 5699 5700 5702 5706 5707 5709 5712 5714 5715 5718 5721 5728 5730 5733 5736 5738 5739 5741 5742 5742 5742 5742
5606 5609 5612 5614 5616 5618 5621 5625 5629 5633 5637 5641 5644 5648 5651 5654 5657 5659 5660 5661 5663 5664 5666 5669 5671 5673 5675 5678 5681 5685 5689 5692 5696 5697 5700 5702 5704 5708 5710 5712 5712 5713 5717 5722 5726 5730 5732 5733 5734 5735 5735 5735 5736 5736
5605 5607 5609 5613 5617 5620 5623 5627 5631 5634 5637 5641 5645 5649 5652 5654 5656 5657 5658 5658 5659 5661 5663 5664 5666 5668 5671 5675 5678 5681 5684 5689 5692 5693 5695 5696 5699 5704 5706 5706 5708 5713 5717 5721 5723 5726 5727 5728 5729 5730 5730 5730 5731 5732
5604 5607 5611 5615 5619 5623 5626 5629 5633 5636 5640 5643 5647 5650 5652 5653 5655 5655 5655 5654 5653 5653 5655 5658 5661 5665 5667 5672 5675 5679 5683 5686 5689 5690 5691 5694 5698 5701 5705 5705 5709 5713 5716 5718 5720 5721 5722 5724 5725 5725 5726 5727 5728 5728
5607 5610 5614 5618 5622 5625 5629 5632 5635 5639 5642 5645 5648 5650 5652 5652 5651 5649 5649 5648 5648 5649 5652 5656 5659 5663 5668 5671 5674 5677 5680 5684 5686 5687 5689 5692 5695 5699 5700 5703 5707 5710 5713 5714 5716 5717 5719 5720 5721 5722 5723 5723 5723 5723
5610 5614 5617 5621 5625 5628 5631 5634 5638 5642 5645 5648 5651 5652 5652 5650 5647 5647 5647 5647 5649 5651 5654 5658 5662 5666 5669 5672 5673 5674 5678 5682 5683 5685 5685 5687 5691 5694 5699 5702 5705 5707 5709 5711 5713 5714 5716 5717 5717 5717 5717 5717 5718 5718
5614 5618 5621 5624 5628 5631 5635 5637 5641 5645 5648 5650 5651 5651 5651 5648 5647 5648 5649 5651 5653 5657 5661 5663 5665 5668 5669 5671 5672 5674 5677 5681 5683 5683 5686 5689 5692 5695 5699 5701 5703 5704 5707 5708 5709 5710 5712 5713 5712 5713 5714 5713 5712 5711
5619 5622 5625 5628 5631 5634 5637 5640 5644 5647 5649 5650 5652 5652 5652 5650 5651 5653 5655 5657 5659 5662 5663 5663 5666 5669 5671 5673 5673 5675 5678 5680 5682 5685 5687 5691 5693 5696 5699 5701 5702 5704 5705 5706 5707 5707 5708 5709 5709 5709 5708 5707 5706 5705
5624 5627 5630 5631 5634 5637 5639 5643 5646 5649 5650 5652 5654 5655 5655 5656 5656 5656 5658 5660 5663 5665 5667 5668 5670 5672 5674 5676 5677 5678 5681 5683 5685 5687 5688 5690 5692 5695 5696 5699 5700 5702 5702 5703 5703 5703 5703 5702 5702 5702 5701 5700 5699 5698
5626 5629 5632 5634 5637 5639 5642 5645 5648 5650 5652 5653 5655 5657 5658 5659 5660 5661 5661 5664 5665 5667 5670 5671 5672 5674 5676 5678 5680 5681 5683 5683 5686 5689 5690 5691 5693 5694 5695 5695 5697 5698 5699 5699 5699 5698 5698 5698 5697 5696 5695 5694 5692 5691
5630 5633 5635 5637 5639 5642 5645 5648 5650 5652 5654 5656 5658 5660 5661 5661 5663 5664 5665 5666 5667 5670 5671 5673 5675 5677 5678 5680 5681 5682 5684 5686 5688 5688 5688 5689 5691 5693 5693 5694 5693 5694 5694 5694 5693 5692 5691 5691 5690 5690 5689 5688 5686 5685
5633 5636 5638 5641 5642 5645 5648 5650 5652 5654 5656 5658 5661 5662 5664 5665 5666 5667 5667 5668 5670 5671 5673 5675 5676 5677 5678 5680 5681 5682 5682 5683 5685 5687 5687 5688 5688 5688 5688 5687 5688 5687 5686 5687 5687 5687 5686 5685 5684 5683 5681 5680 5679 5678
5636 5639 5641 5644 5646 5649 5651 5653 5655 5656 5658 5661 5663 5665 5666 5667 5669 5669 5670 5671 5672 5673 5674 5675 5676 5677 5678 5679 5681 5682 5683 5682 5682 5683 5682 5682 5683 5684 5684 5683 5684 5683 5680 5680 5679 5679 5677 5676 5675 5674 5674 5673 5673 5671
5640 5642 5645 5648 5650 5652 5655 5656 5658 5659 5662 5663 5665 5666 5667 5669 5670 5670 5671 5672 5672 5672 5672 5673 5674 5676 5677 5677 5677 5677 5677 5678 5679 5678 5678 5679 5679 5679 5678 5677 5675 5674 5672 5671 5671 5670 5669 5669 5668 5668 5667 5667 5666 5665
5643 5646 5649 5651 5654 5656 5657 5659 5661 5663 5665 5666 5668 5669 5670 5670 5670 5670 5670 5670 5670 5671 5671 5672 5672 5673 5673 5674 5674 5673 5673 5673 5673 5672 5672 5671 5669 5668 5668 5668 5668 5668 5667 5666 5665 5663 5662 5660 5660 5659 5658 5658 5658 5659
5648 5650 5652 5655 5658 5659 5661 5663 5664 5666 5668 5668 5670 5670 5671 5670 5671 5671 5671 5671 5671 5671 5671 5671 5670 5670 5671 5671 5672 5672 5672 5671 5670 5669 5668 5667 5665 5664 5662 5661 5659 5659 5659 5658 5657 5657 5655 5653 5653 5652 5652 5652 5652 5652
5652 5654 5656 5659 5660 5662 5664 5666 5667 5668 5670 5670 5671 5671 5672 5673 5673 5673 5672 5672 5672 5671 5671 5671 5671 5671 5669 5668 5667 5666 5665 5664 5662 5661 5660 5659 5658 5657 5656 5655 5654 5653 5652 5650 5649 5648 5647 5647 5648 5647 5646 5645 5645 5644